Location: *
(51.1248°S, 108.4023°W)
Time: 00:18:56
(UTC+00:00)

Cosmos 1544 - Pass Details

Date: 01 November 2021
Orbit: 467 x 486 km, 82.5° (Epoch: 01 December)

Event Time Altitude Azimuth Distance (km) Brightness Sun altitude
Exits shadow 06:24:34 14° 109° (ESE) 1,453 5.6 -24.0°
Drops below altitude 10° 06:25:54 10° 129° (SE) 1,684 6.2 -24.0°
Sets 06:28:46 0° 153° (SSE) 2,581 7.6 -24.1°
